#timestamp,LO_Frequency,Hit,StdDev 
1606309215.5,286046998.4,N
1606309235.3,286046999.2,N
1606309255.2,286046996.9,N
1606309275.9,286046998.7,N
1606309295.7,286046998.6,N
1606309315.6,286046996.6,N
1606309335.4,286046998.6,N
1606309355.2,286046999.2,N
1606309375.1,286046999.1,N
1606309376.0,286046999.1,N
1606309395.8,286046996.9,N
1606309415.6,286046996.9,N
1606309435.5,286047001.2,N
1606309455.3,286046998.1,N
1606309475.1,286047000.9,N
1606309495.9,286047000.4,N
1606309515.7,286047000.3,N
1606309535.5,286046999.9,N
1606309555.4,286047000.5,N
1606309575.2,286046998.6,N
1606309595.0,286046998.8,N
1606309595.9,286046998.8,N
1606309615.8,286046998.4,N
1606309635.6,286046998.4,N
1606309655.4,286046998.9,N
1606309675.3,286046996.6,N
1606309695.1,286046999.4,N
1606309696.0,286046999.4,N
1606309715.8,286046997.5,N
1606309735.7,286046997.8,N
1606309755.5,286046996.9,N
1606309775.3,286046999.3,N
1606309795.2,286046998.1,N
1606309815.9,286046996.8,N
1606309835.7,286046997.3,N
1606309855.6,286046997.8,N
1606309875.4,286046999.5,N
1606309895.2,286046998.5,N
1606309915.1,286046999.5,N
1606309916.0,286046999.5,N
1606309935.8,286046996.5,N
1606309955.6,286046998.6,N
1606309975.5,286046998.6,N
1606309995.3,286046999.4,N
1606310015.1,286046998.4,N
1606310035.9,286046999.6,N
1606310055.7,286046996.8,Y
1606310075.5,286046998.9,P
1606310095.4,286046998.4,P
1606310115.2,286046998.8,P
1606310135.0,286046998.2,Y
1606310135.9,286046998.2,P
1606310155.8,286047000.4,N
1606310175.6,286047000.0,N
1606310195.4,286047001.4,N
1606310215.3,286047004.1,Y
1606310235.1,286047003.7,P
1606310236.0,286047003.7,N
1606310255.8,286047003.6,N
1606310275.7,286047004.3,N
1606310295.5,286047001.3,N
1606310315.3,286047003.7,N
1606310335.2,286047002.9,N
1606310355.9,286047003.6,N
1606310375.7,286047003.9,N
1606310395.6,286047003.1,N
1606310415.4,286047003.2,N
1606310435.2,286047003.4,N
1606310455.1,286047004.1,Y
1606310456.0,286047004.1,P
1606310475.8,286046999.0,N
1606310495.6,286047000.7,N
1606310515.5,286047000.2,N
1606310535.3,286047000.5,N
1606310555.1,286046998.1,N
1606310575.9,286046999.5,N
1606310595.7,286046996.5,N
1606310615.5,286046998.8,N
1606310635.4,286047000.8,N
1606310655.2,286047000.1,N
1606310675.0,286047000.1,N
1606310675.9,286047000.1,N
1606310695.8,286047002.4,N
1606310715.6,286047000.3,N
1606310735.4,286047002.7,N
1606310755.3,286046999.7,N
1606310775.1,286046998.1,N
1606310795.8,286047000.8,N
1606310815.7,286047000.3,N
1606310835.5,286047000.5,N
1606310855.3,286046998.3,N
1606310875.2,286046999.6,N
1606310895.0,286046999.0,N
1606310895.9,286046999.0,N
1606310915.7,286046996.6,N
1606310935.6,286046999.1,N
1606310955.4,286046998.3,N
1606310975.2,286046998.9,N
1606310995.1,286047000.9,N
1606310996.0,286047000.9,N
1606311015.8,286047001.0,N
1606311035.6,286047001.1,N
1606311055.5,286047000.4,N
1606311075.3,286046998.5,N
1606311095.1,286046998.5,N
1606311115.9,286046998.1,N
1606311135.7,286047000.7,N
1606311155.5,286047002.2,N
1606311175.4,286046999.7,N
1606311195.2,286046999.9,N
1606311215.0,286047000.4,N
1606311215.9,286047000.4,N
1606311235.8,286046998.3,N
1606311255.6,286046998.2,N
1606311275.4,286046999.1,N
1606311295.3,286046997.2,N
1606311315.1,286046999.4,N
1606311316.0,286046999.4,N
1606311335.8,286046998.9,N
1606311355.7,286046999.2,N
1606311375.5,286046998.9,N
1606311395.3,286047000.9,N
1606311415.2,286047000.7,N
1606311435.9,286047000.8,N
1606311455.7,286047000.8,N
1606311475.6,286047000.8,N
1606311495.4,286047001.2,N
1606311515.2,286047000.8,N
1606311535.1,286047000.6,N
1606311536.0,286047000.6,N
1606311555.8,286047001.1,N
1606311575.6,286047001.1,N
1606311595.5,286046998.2,N
1606311615.3,286046998.8,N
1606311635.1,286046999.0,N
1606311655.9,286046998.2,N
1606311675.7,286046997.0,N
1606311695.5,286046997.1,N
1606311715.4,286046996.7,N
1606311735.2,286046998.8,N
1606311755.0,286046998.5,N
1606311755.9,286046998.5,N
1606311775.8,286046998.1,N
1606311795.6,286046998.1,N
1606311815.4,286047000.7,N
1606311835.3,286047000.9,N
1606311855.1,286046999.3,N
1606311856.0,286046999.3,N
1606311875.8,286046999.3,N
1606311895.7,286046999.1,N
1606311915.5,286046998.7,N
1606311935.3,286046999.6,N
1606311955.2,286046997.6,N
1606311975.9,286046995.6,Y
1606311995.7,286046997.5,P
1606312015.6,286046997.3,P
1606312035.4,286046996.9,P
1606312055.2,286046999.0,N
1606312075.1,286046996.5,Y
1606312076.0,286046996.5,P
1606312095.8,286046998.3,N
1606312115.6,286047001.2,N
1606312135.5,286047001.0,N
1606312155.3,286047000.4,N
1606312175.1,286047002.6,N
1606312195.9,286047002.1,N
1606312215.7,286047002.3,N
1606312235.5,286047002.0,N
1606312255.3,286046999.7,N
1606312275.2,286047002.4,N
1606312295.0,286047001.3,N
1606312295.9,286047001.3,N
1606312315.7,286047001.7,N
1606312335.6,286047002.2,N
1606312355.4,286047002.5,N
1606312375.2,286047002.0,N
1606312395.1,286047002.0,N
1606312396.0,286047002.0,N
1606312415.8,286047002.6,N
1606312435.6,286047001.9,N
1606312455.5,286047002.4,N
1606312475.3,286047000.3,N
1606312495.1,286047000.6,N
1606312515.9,286047001.0,N
1606312535.7,286047000.2,N
1606312555.5,286047002.7,N
1606312575.4,286046998.2,N
1606312595.2,286046998.4,N
1606312615.0,286046998.7,N
1606312615.9,286046998.7,N
1606312635.8,286046996.5,N
1606312655.6,286046999.1,N
1606312675.4,286046999.4,N
1606312695.3,286046999.0,N
1606312715.1,286046999.4,N
1606312716.0,286046999.4,N
1606312735.8,286046999.5,N
1606312755.7,286046999.1,N
1606312775.5,286046998.7,N
1606312795.3,286046998.1,N
